DMSP 5D-3 F16 (USA 172) 1 28054U 03048A 26107.28633102 .00000037 00000+0 42878-4 0 9997 2 28054 98.9944 130.6983 0006339 327.4402 226.1041 14.14475248160875 METEOSAT-9 (MSG-2) 1 28912U 05049B 26106.97822635 .00000135 00000+0 00000+0 0 9994 2 28912 9.2242 54.7546 0002009 60.9836 127.1597 1.00268554 6387 DMSP 5D-3 F17 (USA 191) 1 29522U 06050A 26107.21623290 .00000049 00000+0 47939-4 0 9990 2 29522 98.7403 115.0303 0009194 225.5438 134.4984 14.14980445 3802 FENGYUN 3A 1 32958U 08026A 26107.07875002 .00000043 00000+0 41115-4 0 9990 2 32958 98.6847 49.0688 0007853 309.4619 50.5862 14.19557708926731 GOES 14 1 35491U 09033A 26107.18839258 .00000003 00000+0 00000+0 0 9998 2 35491 1.5321 83.7482 0001609 303.4180 61.9706 1.00114365 5985 DMSP 5D-3 F18 (USA 210) 1 35951U 09057A 26107.25390488 .00000229 00000+0 14186-3 0 9994 2 35951 98.9012 88.1683 0012174 66.4125 293.8326 14.14861065850975 EWS-G2 (GOES 15) 1 36411U 10008A 26107.09470552 .00000030 00000+0 00000+0 0 9993 2 36411 1.1150 83.9890 0003577 23.0036 195.5961 1.00271487 59020 COMS 1 1 36744U 10032A 26106.72614130 -.00000334 00000+0 00000+0 0 9998 2 36744 4.6458 76.1912 0001492 353.4600 164.7851 1.00270192 50476 FENGYUN 3B 1 37214U 10059A 26107.28738669 .00000242 00000+0 14864-3 0 9990 2 37214 98.9688 153.0261 0022090 2.3591 130.5741 14.14827655798815 SUOMI NPP 1 37849U 11061A 26107.29931506 .00000054 00000+0 46794-4 0 9993 2 37849 98.7917 48.6049 0002534 119.3960 240.7469 14.19503895749803 METEOSAT-10 (MSG-3) 1 38552U 12035B 26107.21711490 .00000004 00000+0 00000+0 0 9997 2 38552 4.5277 61.2654 0002168 292.0151 290.4073 1.00274712 50241 METOP-B 1 38771U 12049A 26107.23056495 .00000075 00000+0 54020-4 0 9998 2 38771 98.6564 159.9293 0003069 142.7558 217.3833 14.21430846704601 INSAT-3D 1 39216U 13038B 26107.25044617 -.00000331 00000+0 00000+0 0 9997 2 39216 1.7681 83.2760 0001299 255.7499 86.0262 1.00269314 46464 FENGYUN 3C 1 39260U 13052A 26107.26417970 .00000044 00000+0 43327-4 0 9993 2 39260 98.4944 83.9517 0014262 194.3426 165.7346 14.15740500649948 METEOR-M 2 1 40069U 14037A 26107.25779969 .00000338 00000+0 17395-3 0 9995 2 40069 98.5072 85.1687 0005016 203.7937 156.3010 14.21444870610660 HIMAWARI-8 1 40267U 14060A 26107.23517023 -.00000270 00000+0 00000+0 0 9997 2 40267 0.0135 181.1878 0000806 172.0968 77.3759 1.00267928 42145 FENGYUN 2G 1 40367U 14090A 26106.95933454 -.00000293 00000+0 00000+0 0 9994 2 40367 5.4833 73.5406 0002918 142.3552 74.2615 1.00276953 41386 METEOSAT-11 (MSG-4) 1 40732U 15034A 26107.21155699 .00000074 00000+0 00000+0 0 9992 2 40732 3.0494 71.4274 0001732 294.5978 285.0608 1.00279969 6604 ELEKTRO-L 2 1 41105U 15074A 26107.22193271 -.00000107 00000+0 00000+0 0 9998 2 41105 6.5404 71.2590 0002282 255.7342 303.7872 1.00271337 37899 INSAT-3DR 1 41752U 16054A 26107.21225424 -.00000070 00000+0 00000+0 0 9999 2 41752 0.0898 84.9909 0011881 196.1514 74.6349 1.00271080 35203 HIMAWARI-9 1 41836U 16064A 26107.23517023 -.00000268 00000+0 00000+0 0 9993 2 41836 0.0402 118.0937 0001036 292.4913 20.2234 1.00271640 34594 GOES 16 1 41866U 16071A 26107.24505466 -.00000084 00000+0 00000+0 0 9999 2 41866 0.1884 84.9555 0001623 244.3160 219.6363 1.00271508 34490 FENGYUN 4A 1 41882U 16077A 26107.24931949 -.00000348 00000+0 00000+0 0 9995 2 41882 2.1671 80.8965 0008072 139.0902 198.9531 1.00271715 34310 CYGFM05 1 41884U 16078A 26106.94485665 .00014751 00000+0 22068-3 0 9997 2 41884 34.9577 305.3004 0008234 296.1332 63.8544 15.54033560519210 CYGFM04 1 41885U 16078B 26106.83537157 .00018431 00000+0 23625-3 0 9999 2 41885 34.9329 276.5640 0007162 334.4693 25.5677 15.58167077519415 CYGFM02 1 41886U 16078C 26106.87350627 .00021326 00000+0 25020-3 0 9997 2 41886 34.9411 272.3807 0008204 335.5851 24.4485 15.60460475519576 CYGFM01 1 41887U 16078D 26106.95857372 .00015699 00000+0 22975-3 0 9998 2 41887 34.9408 306.7364 0007882 290.3749 69.6128 15.54625746519165 CYGFM08 1 41888U 16078E 26106.88681253 .00017541 00000+0 23567-3 0 9990 2 41888 34.9437 288.2748 0009238 316.8551 43.1449 15.56903762519409 CYGFM07 1 41890U 16078G 26106.84954482 .00017653 00000+0 23662-3 0 9996 2 41890 34.9452 276.9123 0007631 333.3906 26.6426 15.56982123519424 CYGFM03 1 41891U 16078H 26106.82052274 .00017317 00000+0 23213-3 0 9992 2 41891 34.9406 279.0648 0006884 321.5377 38.4856 15.56988867519395 FENGYUN 3D 1 43010U 17072A 26107.25684425 .00000454 00000+0 23621-3 0 9996 2 43010 99.0082 80.5934 0000895 178.3032 181.8147 14.19727659436344 NOAA 20 (JPSS-1) 1 43013U 17073A 26107.17219596 .00000036 00000+0 38109-4 0 9998 2 43013 98.7737 47.1878 0002154 85.2820 274.8602 14.19545792435813 GOES 17 1 43226U 18022A 26107.20711265 -.00000175 00000+0 00000+0 0 9992 2 43226 0.7807 86.5475 0000843 261.4581 202.4123 1.00270979 29817 FENGYUN 2H 1 43491U 18050A 26107.09791221 -.00000120 00000+0 00000+0 0 9994 2 43491 2.8729 79.7694 0001582 152.1934 87.6773 1.00275270 28826 METOP-C 1 43689U 18087A 26107.25309126 .00000074 00000+0 53729-4 0 9998 2 43689 98.6692 167.9566 0001283 48.7874 311.3414 14.21509468386176 GEO-KOMPSAT-2A 1 43823U 18100A 26106.96496791 .00000000 00000+0 00000+0 0 9994 2 43823 0.0183 58.9436 0001691 3.5619 258.2303 1.00270963 27011 METEOR-M2 2 1 44387U 19038A 26107.27062186 .00000149 00000+0 84366-4 0 9999 2 44387 98.9121 93.6665 0001348 142.5239 217.6034 14.24349126352622 ARKTIKA-M 1 1 47719U 21016A 26104.19163249 -.00000023 00000+0 00000+0 0 9990 2 47719 63.2205 66.8463 7262707 269.6395 15.0340 2.00612377 37508 FENGYUN 3E 1 49008U 21062A 26107.31813928 .00000038 00000+0 38488-4 0 9998 2 49008 98.7507 111.4029 0000433 261.4457 98.6670 14.19899136247949 GOES 18 1 51850U 22021A 26107.12633898 .00000000 00000+0 00000+0 0 9990 2 51850 0.0187 72.4508 0000373 21.1163 20.1765 1.00272310 5989 NOAA 21 (JPSS-2) 1 54234U 22150A 26107.20647869 .00000011 00000+0 25740-4 0 9999 2 54234 98.7026 47.0316 0002242 40.0090 320.1251 14.19553959177893 METEOSAT-12 (MTG-I1) 1 54743U 22170C 26107.21711490 -.00000001 00000+0 00000+0 0 9996 2 54743 0.7126 20.5999 0001110 325.6924 297.0039 1.00267421 12364 TIANMU-1 03 1 55973U 23039A 26107.28849493 .00009390 00000+0 19750-3 0 9994 2 55973 97.5207 278.9633 0002017 336.5612 23.5544 15.45535922171424 TIANMU-1 04 1 55974U 23039B 26107.30024978 .00011670 00000+0 24045-3 0 9998 2 55974 97.5142 278.1287 0002608 325.0623 35.0454 15.46075790171433 TIANMU-1 05 1 55975U 23039C 26107.26659564 .00009443 00000+0 19902-3 0 9990 2 55975 97.5187 278.5778 0002318 7.1279 353.0003 15.45474401171406 TIANMU-1 06 1 55976U 23039D 26107.30038931 .00009857 00000+0 20394-3 0 9991 2 55976 97.5196 279.1892 0002450 356.5768 3.5464 15.46003651171439 FENGYUN 3G 1 56232U 23055A 26107.11246853 .00016150 00000+0 27041-3 0 9998 2 56232 49.9930 300.9232 0005690 282.3420 77.6909 15.51956229170511 METEOR-M2 3 1 57166U 23091A 26107.32149131 -.00000007 00000+0 15928-4 0 9996 2 57166 98.6137 163.5290 0003791 5.4716 354.6503 14.24041545145859 TIANMU-1 07 1 57399U 23101A 26107.25568917 .00004083 00000+0 14582-3 0 9996 2 57399 97.2650 159.3346 0003168 51.4552 308.6972 15.29394279152335 TIANMU-1 08 1 57400U 23101B 26105.97981233 .00000116 00000+0 66025-5 0 9990 2 57400 97.2643 157.8664 0003497 13.0470 347.0861 15.29289257152135 TIANMU-1 09 1 57401U 23101C 26107.27240300 .00004203 00000+0 15051-3 0 9991 2 57401 97.2598 158.5778 0003186 39.6574 320.4899 15.29290730152339 TIANMU-1 10 1 57402U 23101D 26107.23964940 .00004023 00000+0 14445-3 0 9997 2 57402 97.2676 159.5327 0003917 14.8098 345.3256 15.29226211152321 FENGYUN 3F 1 57490U 23111A 26107.30336605 .00000032 00000+0 35503-4 0 9999 2 57490 98.6862 178.4380 0000781 102.9725 257.1539 14.19928126140223 ARKTIKA-M 2 1 58584U 23198A 26104.95162231 .00000210 00000+0 00000+0 0 9996 2 58584 63.2184 161.3981 6886078 267.6307 18.8486 2.00607936 17050 TIANMU-1 11 1 58645U 23205A 26107.22831135 .00003426 00000+0 13449-3 0 9999 2 58645 97.3493 129.7582 0008040 208.7171 151.3626 15.26364082128223 TIANMU-1 12 1 58646U 23205B 26107.32795090 .00003574 00000+0 14045-3 0 9997 2 58646 97.3482 129.6255 0006926 187.2580 172.8559 15.26306964128222 TIANMU-1 13 1 58647U 23205C 26107.29199725 .00003690 00000+0 14468-3 0 9995 2 58647 97.3510 129.8460 0007839 170.1360 190.0034 15.26359008128212 TIANMU-1 14 1 58648U 23205D 26107.27722029 .00003679 00000+0 14435-3 0 9994 2 58648 97.3445 129.0655 0008390 175.4048 184.7269 15.26332201128218 TIANMU-1 19 1 58660U 23208A 26107.31061723 .00005529 00000+0 18941-3 0 9995 2 58660 97.4432 223.3704 0005732 158.9091 201.2387 15.30611033128015 TIANMU-1 20 1 58661U 23208B 26107.26505002 .00006156 00000+0 20291-3 0 9991 2 58661 97.4373 223.8974 0007586 170.5274 189.6112 15.31798947128090 TIANMU-1 21 1 58662U 23208C 26107.27652668 .00007159 00000+0 22032-3 0 9993 2 58662 97.4431 226.3350 0007670 165.2776 194.8691 15.33942120128225 TIANMU-1 22 1 58663U 23208D 26107.27329933 .00004969 00000+0 17286-3 0 9991 2 58663 97.4428 223.3172 0003922 175.1902 184.9377 15.30166724128011 TIANMU-1 15 1 58700U 24004A 26107.27446524 .00004029 00000+0 15779-3 0 9996 2 58700 97.4674 293.4786 0006717 191.5471 168.5615 15.26365799126483 TIANMU-1 16 1 58701U 24004B 26107.32258817 .00003884 00000+0 15205-3 0 9991 2 58701 97.4619 292.8229 0005112 190.7449 169.3681 15.26403191126494 TIANMU-1 17 1 58702U 24004C 26107.30572972 .00003932 00000+0 15462-3 0 9990 2 58702 97.4647 293.2733 0004888 196.3363 163.7718 15.26253232126484 TIANMU-1 18 1 58703U 24004D 26107.29075284 .00003967 00000+0 15545-3 0 9993 2 58703 97.4666 293.4794 0003794 185.3376 174.7823 15.26369201126485 INSAT-3DS 1 58990U 24033A 26107.09843221 -.00000149 00000+0 00000+0 0 9991 2 58990 0.0680 84.4110 0001840 296.9979 301.3528 1.00271681 46456 METEOR-M2 4 1 59051U 24039A 26107.26712281 -.00000009 00000+0 15586-4 0 9991 2 59051 98.6965 67.3480 0006979 355.7746 4.3372 14.22422945110603 GOES 19 1 60133U 24119A 26107.20988600 -.00000242 00000+0 00000+0 0 9996 2 60133 0.0326 80.7790 0000510 359.5277 125.4084 1.00271547 6356 FENGYUN 3H 1 65815U 25219A 26107.08785611 .00000022 00000+0 30898-4 0 9991 2 65815 98.6734 49.0579 0000662 93.1710 266.9542 14.19942262 28715